Wiley Ford, WV

4:17 PM EST on February 20, 2017 (GMT -0500)
Greater Cumberland Regional

Weather History for KCBE - October, 2011

Change the Weather History Date:

Monday, October 3, 2011

  Actual Average (KMRB) Record (KMRB)
Temperature  
Mean Temperature 42 °F -  
Max Temperature 42 °F 71 °F 92 °F (1927)
Min Temperature 41 °F 47 °F 24 °F (1947)
Degree Days  
Heating Degree Days 24    
Moisture  
Dew Point 42 °F    
Average Humidity 100    
Maximum Humidity 100    
Minimum Humidity 93    
Precipitation  
Precipitation 0.00 in - - ()
Sea Level Pressure  
Sea Level Pressure 30.00 in    
Wind  
Wind Speed 0 mph (SSE)    
Max Wind Speed 5 mph    
Max Gust Speed -    
Visibility 9 miles    
Events      
Averages and records for this station are not official NWS values.
T = Trace of Precipitation, MM = Missing Value Source: NWS Daily Summary

Daily Weather History Graph

Daily Weather History Graph

Search for Another Location

Airport or City:

Trip Planner

Search our weather history database for the weather conditions in past years. The results will help you decide how hot, cold, wet, or windy it might be!

Date:

Astronomy

Oct. 03, 2011 Rise Set
Actual Time 7:12 AM EDT 6:54 PM EDT
Civil Twilight 6:45 AM EDT 7:21 PM EDT
Nautical Twilight 6:14 AM EDT 7:52 PM EDT
Astronomical Twilight 5:43 AM EDT 8:24 PM EDT
Moon 2:08 PM EDT (10/3) 11:56 PM EDT (10/3)
Length of Visible Light 12h 35m
Length of Day
11h 41m
Waxing Crescent, 45% of the Moon is Illuminated
Oct 3
Waxing Crescent
Oct 3
First Quarter
Oct 11
Full
Oct 19
Last Quarter
Oct 26
New

Hourly Weather History & Observations

Time (EDT) Temp. Windchill Dew Point Humidity Pressure Visibility Wind Dir Wind Speed Gust Speed Precip Events Conditions
12:04 AM 41.0 °F - 41.0 °F 100% 29.99 in 10.0 mi Calm Calm - N/A   Overcast
12:16 AM 42.8 °F - 42.8 °F 100% 29.99 in 10.0 mi Calm Calm - N/A   Overcast
12:27 AM 41.0 °F - 41.0 °F 100% 29.99 in 10.0 mi Calm Calm - N/A   Overcast
12:38 AM 41.0 °F - 41.0 °F 100% 29.98 in 10.0 mi Calm Calm - N/A   Overcast
12:50 AM 41.0 °F - 41.0 °F 100% 29.98 in 10.0 mi Calm Calm - N/A   Overcast
1:01 AM 41.0 °F - 41.0 °F 100% 29.98 in 10.0 mi Calm Calm - N/A   Mostly Cloudy
1:12 AM 42.8 °F - 41.0 °F 93% 29.97 in 10.0 mi Calm Calm - N/A   Mostly Cloudy
1:24 AM 41.0 °F - 41.0 °F 100% 29.97 in 10.0 mi Calm Calm - N/A   Mostly Cloudy
1:35 AM 42.8 °F - 41.0 °F 93% 29.97 in 10.0 mi Calm Calm - N/A   Overcast
1:46 AM 42.8 °F - 41.0 °F 93% 29.97 in 10.0 mi Calm Calm - N/A   Overcast
1:58 AM 42.8 °F - 42.8 °F 100% 29.97 in 10.0 mi Calm Calm - N/A   Overcast
2:09 AM 42.8 °F - 42.8 °F 100% 29.98 in 10.0 mi Calm Calm - N/A   Overcast
2:20 AM 42.8 °F - 42.8 °F 100% 29.98 in 10.0 mi Calm Calm - N/A   Overcast
2:32 AM 42.8 °F - 42.8 °F 100% 29.98 in 10.0 mi Calm Calm - N/A   Overcast
2:43 AM 42.8 °F - 42.8 °F 100% 29.98 in 10.0 mi Calm Calm - N/A   Overcast
3:17 AM 42.8 °F - 42.8 °F 100% 29.98 in 10.0 mi Calm Calm - N/A   Overcast
3:28 AM 41.0 °F - 41.0 °F 100% 29.98 in 10.0 mi Calm Calm - N/A   Overcast
3:40 AM 41.0 °F - 41.0 °F 100% 29.98 in 5.0 mi Calm Calm - N/A   Overcast
3:51 AM 41.0 °F - 41.0 °F 100% 29.98 in 7.0 mi Calm Calm - N/A   Overcast
4:02 AM 41.0 °F - 41.0 °F 100% 29.99 in 7.0 mi Calm Calm - N/A   Overcast
4:14 AM 42.8 °F - 42.8 °F 100% 29.99 in 7.0 mi Calm Calm - N/A   Overcast
4:25 AM 41.0 °F - 41.0 °F 100% 29.99 in 7.0 mi Calm Calm - N/A   Overcast
4:36 AM 41.0 °F 39.0 °F 41.0 °F 100% 29.99 in 5.0 mi SSE 3.5 mph - N/A   Overcast
4:48 AM 41.0 °F 38.0 °F 41.0 °F 100% 29.99 in 7.0 mi SSE 4.6 mph - N/A   Overcast
4:59 AM 41.0 °F 39.0 °F 41.0 °F 100% 29.99 in 10.0 mi SSE 3.5 mph - N/A   Overcast
5:11 AM 41.0 °F - 41.0 °F 100% 30.00 in 10.0 mi Calm Calm - N/A   Overcast
5:22 AM 41.0 °F - 41.0 °F 100% 30.00 in 10.0 mi Calm Calm - N/A   Overcast
5:33 AM 41.0 °F - 41.0 °F 100% 30.00 in 10.0 mi Calm Calm - N/A   Mostly Cloudy
5:45 AM 41.0 °F - 41.0 °F 100% 30.00 in 10.0 mi Calm Calm - N/A   Mostly Cloudy
5:56 AM 42.8 °F - 42.8 °F 100% 30.00 in 7.0 mi Calm Calm - N/A   Mostly Cloudy
6:07 AM 42.8 °F - 42.8 °F 100% 30.01 in 10.0 mi Calm Calm - N/A   Mostly Cloudy
6:18 AM 42.8 °F - 42.8 °F 100% 30.01 in 10.0 mi Calm Calm - N/A   Mostly Cloudy
6:30 AM 42.8 °F - 42.8 °F 100% 30.01 in 10.0 mi Calm Calm - N/A   Mostly Cloudy
6:41 AM 42.8 °F - 42.8 °F 100% 30.02 in 10.0 mi Calm Calm - N/A   Mostly Cloudy
6:52 AM 42.8 °F - 42.8 °F 100% 30.02 in 10.0 mi Calm Calm - N/A   Mostly Cloudy
7:04 AM 42.8 °F - 42.8 °F 100% 30.02 in 10.0 mi Calm Calm - N/A   Overcast
7:15 AM 42.8 °F - 42.8 °F 100% 30.02 in 10.0 mi Calm Calm - N/A   Mostly Cloudy
7:26 AM 42.8 °F - 42.8 °F 100% 30.02 in 10.0 mi Calm Calm - N/A   Mostly Cloudy
7:38 AM 42.8 °F - 42.8 °F 100% 30.02 in 7.0 mi Calm Calm - N/A   Mostly Cloudy
7:49 AM 42.8 °F - 42.8 °F 100% 30.03 in 7.0 mi Calm Calm - N/A   Overcast
8:00 AM 42.8 °F - 42.8 °F 100% 30.03 in 10.0 mi Calm Calm - N/A   Overcast
8:12 AM 42.8 °F - 42.8 °F 100% 30.04 in 10.0 mi Calm Calm - N/A   Overcast
8:23 AM 42.8 °F - 42.8 °F 100% 30.04 in 5.0 mi Calm Calm - N/A   Overcast
8:34 AM 42.8 °F - 42.8 °F 100% 30.04 in 4.0 mi Calm Calm - N/A   Overcast
8:46 AM 42.8 °F - 42.8 °F 100% 30.04 in 4.0 mi Calm Calm - N/A   Overcast
8:57 AM 42.8 °F - 42.8 °F 100% 30.05 in 2.5 mi Calm Calm - N/A   Overcast
9:08 AM 42.8 °F - 42.8 °F 100% 30.05 in 3.0 mi Calm Calm - N/A   Overcast
9:19 AM 42.8 °F - 42.8 °F 100% 30.05 in 2.5 mi Calm Calm - N/A   Overcast
9:31 AM 42.8 °F - 42.8 °F 100% 30.06 in 1.8 mi Calm Calm - N/A   Overcast
9:42 AM 42.8 °F - 42.8 °F 100% 30.06 in 4.0 mi Calm Calm - N/A   Overcast
9:53 AM 42.8 °F - 42.8 °F 100% 30.06 in 7.0 mi Calm Calm - N/A   Overcast
10:05 AM 44.6 °F - 44.6 °F 100% 30.07 in 7.0 mi Calm Calm - N/A   Overcast
10:16 AM 44.6 °F - 44.6 °F 100% 30.07 in 7.0 mi Calm Calm - N/A   Overcast
10:27 AM 44.6 °F - 44.6 °F 100% 30.07 in 10.0 mi Calm Calm - N/A   Overcast
10:38 AM 44.6 °F - 44.6 °F 100% 30.07 in 10.0 mi Calm Calm - N/A   Overcast
10:50 AM 44.6 °F - 44.6 °F 100% 30.07 in 10.0 mi Calm Calm - N/A   Overcast
11:01 AM 44.6 °F - 44.6 °F 100% 30.07 in 10.0 mi Calm Calm - N/A   Overcast
11:12 AM 44.6 °F - 44.6 °F 100% 30.07 in 5.0 mi Calm Calm - N/A   Overcast
11:24 AM 46.4 °F - 46.4 °F 100% 30.07 in 7.0 mi Calm Calm - N/A   Overcast
11:35 AM 46.4 °F - 46.4 °F 100% 30.07 in 3.0 mi Calm Calm - N/A   Overcast
11:46 AM 46.4 °F - 46.4 °F 100% 30.07 in 5.0 mi Calm Calm - N/A   Overcast
11:58 AM 46.4 °F 45.2 °F 46.4 °F 100% 30.07 in 3.0 mi SE 3.5 mph - N/A   Overcast
12:09 PM 46.4 °F 45.2 °F 46.4 °F 100% 30.07 in 4.0 mi SSE 3.5 mph - N/A   Overcast
12:20 PM 48.2 °F - 48.2 °F 100% 30.06 in 7.0 mi SSE 3.5 mph - N/A   Overcast
12:31 PM 48.2 °F - 48.2 °F 100% 30.06 in 10.0 mi SSE 4.6 mph - N/A   Overcast
12:43 PM 50.0 °F - 50.0 °F 100% 30.06 in 7.0 mi SSE 3.5 mph - N/A   Overcast
12:54 PM 50.0 °F - 50.0 °F 100% 30.06 in 5.0 mi SE 3.5 mph - N/A   Overcast
1:05 PM 50.0 °F - 50.0 °F 100% 30.06 in 5.0 mi SSE 3.5 mph - N/A   Overcast
1:17 PM 50.0 °F - 50.0 °F 100% 30.06 in 5.0 mi South 3.5 mph - N/A   Overcast
1:28 PM 50.0 °F - 50.0 °F 100% 30.06 in 10.0 mi SSE 3.5 mph - N/A   Overcast
1:37 PM 50.0 °F - 50.0 °F 100% 30.06 in 7.0 mi SSE 4.6 mph - N/A   Overcast
1:58 PM 50.0 °F - 50.0 °F 100% 30.06 in 10.0 mi SSE 3.5 mph - N/A   Overcast
2:19 PM 50.0 °F - 50.0 °F 100% 30.06 in 10.0 mi Calm Calm - N/A   Mostly Cloudy
2:40 PM 50.0 °F - 50.0 °F 100% 30.07 in 10.0 mi Calm Calm - N/A   Mostly Cloudy
3:02 PM 50.0 °F - 50.0 °F 100% 30.07 in 4.0 mi SE 3.5 mph - N/A   Overcast
3:23 PM 50.0 °F - 50.0 °F 100% 30.07 in 7.0 mi Calm Calm - N/A   Overcast
3:44 PM 50.0 °F - 50.0 °F 100% 30.07 in 7.0 mi Calm Calm - N/A   Mostly Cloudy
4:06 PM 51.8 °F - 51.8 °F 100% 30.07 in 10.0 mi Calm Calm - N/A   Mostly Cloudy
4:27 PM 51.8 °F - 51.8 °F 100% 30.07 in 10.0 mi Calm Calm - N/A   Overcast
4:48 PM 51.8 °F - 51.8 °F 100% 30.07 in 10.0 mi Calm Calm - N/A   Overcast
5:09 PM 51.8 °F - 51.8 °F 100% 30.07 in 10.0 mi SW 4.6 mph - N/A   Overcast
5:31 PM 51.8 °F - 50.0 °F 94% 30.08 in 10.0 mi Calm Calm - N/A   Overcast
5:52 PM 51.8 °F - 50.0 °F 94% 30.08 in 10.0 mi WNW 8.1 mph - N/A   Overcast
6:13 PM 51.8 °F - 48.2 °F 88% 30.09 in 10.0 mi West 4.6 mph - N/A   Mostly Cloudy
6:35 PM 51.8 °F - 46.4 °F 82% 30.10 in 10.0 mi West 5.8 mph - N/A   Mostly Cloudy
6:56 PM 51.8 °F - 46.4 °F 82% 30.10 in 10.0 mi West 4.6 mph - N/A   Mostly Cloudy
7:17 PM 51.8 °F - 48.2 °F 88% 30.10 in 10.0 mi West 3.5 mph - N/A   Mostly Cloudy
7:39 PM 51.8 °F - 46.4 °F 82% 30.11 in 10.0 mi WNW 3.5 mph - N/A   Mostly Cloudy
8:00 PM 51.8 °F - 46.4 °F 82% 30.11 in 10.0 mi Calm Calm - N/A   Mostly Cloudy
8:21 PM 51.8 °F - 46.4 °F 82% 30.11 in 10.0 mi West 3.5 mph - N/A   Overcast
8:42 PM 51.8 °F - 46.4 °F 82% 30.12 in 10.0 mi NW 10.4 mph - N/A   Overcast
9:04 PM 51.8 °F - 46.4 °F 82% 30.12 in 10.0 mi West 6.9 mph - N/A   Mostly Cloudy
9:25 PM 51.8 °F - 48.2 °F 88% 30.13 in 10.0 mi West 5.8 mph - N/A   Overcast
9:46 PM 51.8 °F - 48.2 °F 88% 30.13 in 7.0 mi Calm Calm - N/A   Overcast
10:08 PM 51.8 °F - 50.0 °F 94% 30.14 in 10.0 mi Calm Calm - N/A   Overcast
10:29 PM 50.0 °F - 50.0 °F 100% 30.14 in 10.0 mi Calm Calm - N/A   Overcast
10:50 PM 50.0 °F - 50.0 °F 100% 30.14 in 10.0 mi SSW 3.5 mph - N/A   Overcast
11:12 PM 50.0 °F - 50.0 °F 100% 30.14 in 10.0 mi Calm Calm - N/A   Overcast
11:33 PM 50.0 °F - 50.0 °F 100% 30.14 in 10.0 mi Calm Calm - N/A   Overcast
11:54 PM 50.0 °F - 50.0 °F 100% 30.15 in 10.0 mi Calm Calm - N/A   Overcast